Tracking 17145 objects as of 23-May-2015
HD Live streaming from Space Station

PSLV DEB


PSLV DEB is no longer on orbit
PSLV DEB is classified as:


NORAD ID: 27289
Int'l Code: 2001-049JM
Perigee: N/A
Apogee: N/A
Inclination: N/A
Period: N/A
Semi major axis: N/A
RCS: N/A
Launch date: October 22, 2001
Source: India (IND)
Decay date: 2002-05-25

Note: This is SATELLITE DEBRIS
Your satellite tracking list
Your tracking list is empty





NASA's NSSDC Master Catalog

Two Line Element Set (TLE):
1 27289U 01049JM  02144.17179162 +.03554023 +11782-1 +16729-1 0  9995
2 27289 097.6921 224.0752 0041987 250.8017 113.4976 15.84582684020440

Source of the keplerian elements: AFSPC

N2YO: 350